Weather Roundup
Issued by NWS

Home | Current Version | Previous Version | Graphics & Text | Print | Product List | Glossary Off
Versions: 1 2 3 4 5 6 7 8 9 10 11 12 13 14 15 16 17 18 19 20 21 22 23 24 25 26 27 28 29 30 31 32 33 34 35 36 37 38 39 40 41 42 43 44 45 46 47 48 49 50

000
NZUS93 KARX 290059
HRRWXR

CURRENT HOURLY OBSERVATIONS ACROSS
MUCH OF THE UPPER MISSISSIPPI VALLEY
NATIONAL WEATHER SERVICE LA CROSSE WI
700 PM CST WED JAN 28 2015


...SOUTHEAST MINNESOTA...


CITY           SKY/WX    TMP DP  RH WIND       PRES   REMARKS
ROCHESTER      CLOUDY    32  27  81 SE13      29.78R WCI  22
ROCHESTER/MAYO CLOUDY    33  27  79 SE6       29.79F WCI  28
WINONA         CLOUDY    34  27  75 SE5       29.83R WCI  30
AUSTIN         CLOUDY    34  28  80 SE6       29.76R WCI  29
ALBERT LEA     CLOUDY    34  32  93 SE6       29.75S FOG     WCI  29
DODGE CENTER   CLOUDY    32  30  93 SE7       29.78S FOG     WCI  26
PRESTON        CLOUDY    31  27  83 S12G18    29.78R WCI  22
OWATONNA       MOCLDY    34  30  86 SE5       29.77F FOG     WCI  30
FARIBAULT      CLOUDY    34  30  86 CALM      29.79F FOG
$$

...ELSEWHERE IN MINNESOTA...


CITY           SKY/WX    TMP DP  RH WIND       PRES   REMARKS
MINNEAPOLIS    FRZ DRZL  31  27  85 E8        29.82R FOG     WCI  23
INTNL FALLS    CLOUDY    27  26  96 CALM      29.81S FOG
DULUTH         CLOUDY    29  23  78 S3        29.82S HAZE
RED WING       CLOUDY    32  27  80 E3        29.83S
REDWOOD FALLS  FOG       33  32  96 CALM      29.81R VSB 1
MANKATO        CLOUDY    34  28  80 CALM      29.78S
WORTHINGTON    CLOUDY    32  30  93 N5        29.77R VSB 3/4 WCI  27
FAIRMONT       CLOUDY    34  28  80 N5        29.75S WCI  30
$$

...SOUTHWEST WISCONSIN...


CITY           SKY/WX    TMP DP  RH WIND       PRES   REMARKS
LA CROSSE      CLOUDY    34  23  64 S12       29.83S WCI  25
PRAIRIE DU CHI CLOUDY    33  24  71 E6        29.86R WCI  27
BOSCOBEL       CLOUDY    33  25  72 VRB5      29.88R WCI  29
LONE ROCK      CLOUDY    32  24  72 SE7       29.88R WCI  26
PLATTEVILLE    CLOUDY    32  28  86 SE12      29.85R WCI  23
FORT MC COY    CLOUDY    32  23  69 SE5       29.85F WCI  27
VIROQUA        MOCLDY    31  25  78 S14       29.83R WCI  20
WIS DELLS      NOT AVBL
$$

...ELSEWHERE IN WISCONSIN...


CITY           SKY/WX    TMP DP  RH WIND       PRES   REMARKS
MILWAUKEE      CLOUDY    32  22  66 S20       29.95F WCI  20
MADISON        CLOUDY    32  22  66 S18G25    29.88F WCI  20
GREEN BAY      CLOUDY    30  24  78 SE13      29.93F WCI  20
EAU CLAIRE     NOT AVBL
BLACK RVR FLS  CLOUDY    31  23  71 SE3       29.83F
MEDFORD        MOCLDY    26  21  80 SE8       29.82R WCI  18
WAUSAU         CLOUDY    28  19  69 SE10      29.84F WCI  19
WIS RAPIDS     MOCLDY    28  19  69 SE6       29.87S WCI  22
MARSHFIELD     MOCLDY    28  20  71 SE14      29.84S WCI  17
RICE LAKE      CLOUDY    29  25  84 SE7       29.86R HAZE    WCI  22
$$

...NORTHEAST IOWA...


CITY           SKY/WX    TMP DP  RH WIND       PRES   REMARKS
DECORAH        CLOUDY    32  28  86 SE12G17   29.79F WCI  23
MASON CITY     MOCLDY    33  31  92 SE8       29.75R WCI  26
CHARLES CITY   CLOUDY    34  32  93 SE14      29.76F WCI  24
OELWEIN        CLOUDY    34  30  86 SE14      29.80F WCI  24
$$

...ELSEWHERE IN IOWA...


CITY           SKY/WX    TMP DP  RH WIND       PRES   REMARKS
DES MOINES     CLOUDY    47  35  63 E9        29.69F
IOWA CITY      CLOUDY    37  32  82 SE13      29.79S WCI  29
FORT DODGE     PTCLDY    34  30  86 E3        29.72R
$$

...NORTHERN ILLINOIS...


CITY           SKY/WX    TMP DP  RH WIND       PRES   REMARKS
CHICAGO-OHARE  CLOUDY    32  21  64 SE15G24   29.95F WCI  22
CHICAGO-MIDWAY CLOUDY    34  21  59 SE14G22   29.97F WCI  25
MOLINE         MOCLDY    36  30  79 SE10      29.82F WCI  28
ROCKFORD       CLOUDY    32  24  72 S21       29.91F WCI  20
PEORIA         MOCLDY    39  30  70 S20G28    29.88F WCI  29
$$

NOTE: "FAIR" INDICATES FEW OR NO CLOUDS BELOW 12,000 FEET WITH NO
SIGNIFICANT WEATHER AND/OR OBSTRUCTIONS TO VISIBILITY. WIND
SPEEDS ARE IN MILES-PER-HOUR.



USA.gov is the U.S. government's official web portal to all federal, state and local government web resources and services.